Regional Weather Roundup
Issued by NWS

Home | Current Version | Previous Version | Graphics & Text | Print | Product List | Glossary On
Versions: 1 2 3 4 5 6 7 8 9 10 11 12 13 14 15 16 17 18 19 20 21 22 23 24 25 26 27 28 29 30 31 32 33 34 35 36 37 38 39 40 41 42 43 44 45 46 47 48 49 50
000
ASUS43 KLSX 272059
RWRMO

WEATHER SUMMARY FOR MISSOURI
NATIONAL WEATHER SERVICE SPRINGFIELD MO
400 PM CDT WED AUG 27 2014

NOTE: "FAIR" INDICATES FEW OR NO CLOUDS BELOW 12,000 FEET WITH NO
       SIGNIFICANT WEATHER AND/OR OBSTRUCTIONS TO VISIBILITY.
       CURRENT SKY AND/OR WEATHER CONDITIONS ARE NOT AVAILABLE FOR
       CHILLICOTHE AND FARMINGTON.

MOZ001>031-035>038-043-044-053-054-272200-
...NORTHERN AND WESTERN MISSOURI...

CITY           SKY/WX    TMP DP  RH WIND       PRES   REMARKS
KANSAS CTY INT PTSUNNY   85  69  58 E10       30.08F
KANSAS C DTWN  SUNNY     87  70  56 E14       30.06F HX  92
LEE`S SUMMIT   MOSUNNY   85  73  67 E12       30.08F HX  91
ST JOSEPH      MOSUNNY   81  72  74 VRB6      30.08F
KIRKSVILLE     CLOUDY    77  70  79 NE3       30.12F

$$
MOZ066>068-077>081-088>096-101>105-272200-
...SOUTHWEST MISSOURI...

CITY           SKY/WX    TMP DP  RH WIND       PRES   REMARKS
SPRINGFIELD    MOSUNNY   94  62  34 W5        30.04F HX  94
JOPLIN         MOSUNNY   93  66  40 VRB3      30.04F HX  96

$$
MOZ032>034-039>042-045>050-055>058-069>072-272200-
...CENTRAL MISSOURI...

CITY           SKY/WX    TMP DP  RH WIND       PRES   REMARKS
COLUMBIA       PTSUNNY   86  75  69 N13       30.09S HX  95
JEFFERSON CITY PTSUNNY   91  74  57 N10       30.04F HX 100
ROLLA          LGT RAIN  77  68  73 E3        30.06F
SEDALIA        PTSUNNY   83  73  72 N8        30.10F
WHITEMAN AFB   MOSUNNY   82  48  30 NE9       30.07F
OSAGE BEACH    CLOUDY    81  64  57 W7        30.06F

$$
MOZ051-052-059>065-272200-
...EAST CENTRAL MISSOURI...

CITY           SKY/WX    TMP DP  RH WIND       PRES   REMARKS
ST LOUIS INTL  PTSUNNY   93  75  55 N13       30.03F HX 104
SPIRIT OF STL  PTSUNNY   92  74  55 N9        30.02F HX 101
ST CHARLES     SUNNY     90  75  61 NE14      30.03F HX 100

$$
MOZ072>076-082>087-097>100-106>115-272200-
...SOUTH CENTRAL AND SOUTHEAST MISSOURI...

CITY           SKY/WX    TMP DP  RH WIND       PRES   REMARKS
CAPE GIRARDEAU SUNNY     93  71  48 E6        30.03F HX 100
FARMINGTON       N/A    N/A N/A N/A MISG        N/A
POPLAR BLUFF   SUNNY     92  68  45 VRB3      30.02F HX  96
WEST PLAINS    LGT RAIN  86  73  65 N7        30.08S HX  93

$$


USA.gov is the U.S. government's official web portal to all federal, state and local government web resources and services.